Location: Marse
(42.1502°N, 110.9866°W)
Time: 13:58:49
(UTC+00:00)

QB50P2 - Pass Details

Date: 02 July 2022
Orbit: 590 x 605 km, 97.9° (Epoch: 18 August)

Event Time Altitude Azimuth Distance (km) Brightness Sun altitude
Rises 08:19:26 0° 20° (NNE) 2,861 ? -23.7°
Reaches altitude 10° 08:21:43 10° 28° (NNE) 1,956 ? -23.7°
Maximum altitude 08:25:44 40° 98° (E) 892 ? -23.5°
Enters shadow 08:26:01 40° 109° (ESE) 901 ? -23.5°
